Location: Recife
(8.0585°S, 34.8848°W)
Time: 11:04:57
(UTC-03:00)

SR - Pass Details

Date: 21 April 2026
Orbit: 568 x 852 km, 66.7° (Epoch: 12 May)

Event Time Altitude Azimuth Distance (km) Brightness Sun altitude
Rises 22:14:58 0° 357° (N) 3,397 - -73.9°
Reaches altitude 10° 22:17:38 10° 5° (N) 2,458 - -74.6°
Maximum altitude 22:22:51 37° 71° (ENE) 1,261 - -75.8°
Drops below altitude 10° 22:27:54 10° 137° (SE) 2,376 - -77.0°
Sets 22:30:25 0° 145° (SE) 3,270 - -77.6°
